This demonstration page uses our WeatherBlox Daily Observations layout. Learn more.

Left ArrowRight Arrow

39.51506, -84.39828

Hourly Observations for April 17, 2017

Temp ( °F °C ) Dew Point ( °F °C ) Humidity (%) Winds ( mph kmh ) Pressure ( in mb ) Visibility ( mi km ) Precip ( " mm )
12:15 am 00:15 Mostly Cloudy 62 16.6 56 13.3 81 81 Calm 30.03 1017 10 16 0.00 0.00
12:35 am 00:35 Mostly Cloudy 62 16.6 56 13.5 82 82 Calm 30.03 1017 10 16 0.00 0.00
12:55 am 00:55 Mostly Cloudy 62 16.6 56 13.5 82 82 SSW 3 6 30.03 1017 10 16 0.00 0.00
1:15 am 01:15 Mostly Cloudy 62 16.6 56 13.3 81 81 Calm 30.03 1017 10 16 0.00 0.00
1:35 am 01:35 Mostly Cloudy 62 16.6 56 13.5 82 82 SSW 3 6 30.03 1017 10 16 0.00 0.00
1:55 am 01:55 Cloudy 62 16.6 56 13.5 82 82 SSW 5 7 30.03 1017 10 16 0.00 0.00
2:15 am 02:15 Cloudy 62 16.6 56 13.6 83 83 SSW 3 6 30.03 1017 10 16 0.00 0.00
2:35 am 02:35 Partly Cloudy 61 16.1 56 13.1 83 83 SSW 3 6 30.03 1017 10 16 0.00 0.00
2:55 am 02:55 Clear 61 16.1 56 13.1 83 83 Calm 30.03 1017 10 16 0.00 0.00
3:15 am 03:15 Partly Cloudy 61 16 55 13 83 83 Calm 30.03 1017 10 16 0.00 0.00
3:35 am 03:35 Partly Cloudy 61 16 55 13 83 83 Calm 30.03 1017 10 16 0.00 0.00
3:55 am 03:55 Mostly Cloudy 61 16 55 12.9 82 82 Calm 30.03 1017 10 16 0.00 0.00
4:15 am 04:15 Partly Cloudy 61 16.3 55 12.8 80 80 NNW 3 6 30.03 1017 10 16 0.00 0.00
4:35 am 04:35 Clear 62 16.6 55 12.7 78 78 NNW 5 7 30.06 1018 10 16 0.00 0.00
4:55 am 04:55 Clear 61 16 53 11.8 76 76 NNW 8 13 30.09 1019 10 16 0.00 0.00
5:15 am 05:15 Clear 61 16 51 10.8 71 71 N 7 11 30.09 1019 10 16 0.00 0.00
5:35 am 05:35 Clear 60 15.3 51 10.3 72 72 N 7 11 30.09 1019 10 16 0.00 0.00
5:55 am 05:55 Clear 60 15.3 50 10 71 71 N 7 11 30.12 1020 10 16 0.00 0.00
6:15 am 06:15 Partly Cloudy 60 15.3 49 9.4 68 68 N 6 9 30.12 1020 10 16 0.00 0.00
6:35 am 06:35 Clear 57 13.8 46 7.6 66 66 NNE 6 9 30.12 1020 10 16 0.00 0.00
6:55 am 06:55 Clear 57 13.8 45 7 64 64 NNE 3 6 30.12 1020 10 16 0.00 0.00
7:15 am 07:15 Sunny 57 13.8 44 6.7 62 62 N 6 9 30.15 1021 10 16 0.00 0.00
7:35 am 07:35 Sunny 57 13.8 43 6.1 60 60 N 6 9 30.15 1021 10 16 0.00 0.00
7:55 am 07:55 Sunny 57 13.8 43 6 60 60 NNE 5 7 30.15 1021 10 16 0.00 0.00
8:15 am 08:15 Sunny 59 14.9 43 6 55 55 NNE 6 9 30.15 1021 10 16 0.00 0.00
8:35 am 08:35 Sunny 59 15 42 5.7 54 54 N 7 11 30.15 1021 10 16 0.00 0.00
8:55 am 08:55 Sunny 60 15.3 41 5.2 51 51 N 7 11 30.18 1022 10 16 0.00 0.00
9:15 am 09:15 Sunny 61 16 40 4.2 46 46 NNE 9 15 30.18 1022 10 16 0.00 0.00
9:35 am 09:35 Sunny 62 16.6 37 2.9 40 40 NE 8 13 30.18 1022 10 16 0.00 0.00
9:55 am 09:55 Sunny 63 17.1 35 1.6 35 35 NE 9 15 30.15 1021 10 16 0.00 0.00
10:15 am 10:15 Sunny 64 18 33 0.5 31 31 NE 9 15 30.15 1021 10 16 0.00 0.00
10:35 am 10:35 Sunny 64 18 29 -1.4 27 27 NNE 10 17 30.15 1021 10 16 0.00 0.00
10:55 am 10:55 Sunny 68 20 33 0.3 27 27 NNE 8 13 30.15 1021 10 16 0.00 0.00
11:15 am 11:15 Sunny 69 20.8 29 -1.4 23 23 NE 8 13 30.15 1021 10 16 0.00 0.00
11:35 am 11:35 Sunny 69 20.8 29 -1.8 22 22 N 8 13 30.15 1021 10 16 0.00 0.00
11:55 am 11:55 Sunny 69 20.8 26 -3.2 20 20 NE 13 20 30.15 1021 10 16 0.00 0.00
12:15 pm 12:15 Sunny 69 20.8 26 -3.4 19 19 ENE 13 20 30.15 1021 10 16 0.00 0.00
12:35 pm 12:35 Sunny 69 20.8 21 -6 16 16 NE 3 6 30.15 1021 10 16 0.00 0.00
12:55 pm 12:55 Sunny 69 20.8 24 -4.2 18 18 NNE 12 19 30.15 1021 10 16 0.00 0.00
1:15 pm 13:15 Sunny 69 20.8 26 -3.5 19 19 NE 7 11 30.15 1021 10 16 0.00 0.00
1:35 pm 13:35 Sunny 69 20.8 27 -3 20 20 NE 3 6 30.12 1020 10 16 0.00 0.00
1:55 pm 13:55 Sunny 69 20.8 23 -4.8 17 17 NE 7 11 30.12 1020 10 16 0.00 0.00
2:15 pm 14:15 Partly Cloudy 69 20.8 20 -6.6 15 15 N 3 6 30.12 1020 10 16 0.00 0.00
2:35 pm 14:35 Sunny 69 20.8 22 -5.3 17 17 N 6 9 30.15 1021 10 16 0.00 0.00
2:55 pm 14:55 Sunny 69 20.8 20 -6.7 15 15 Calm 30.15 1021 10 16 0.00 0.00
3:15 pm 15:15 Sunny 69 20.8 22 -5.5 17 17 N 3 6 30.15 1021 10 16 0.00 0.00
3:35 pm 15:35 Sunny 69 20.8 22 -5.4 17 17 Calm 30.15 1021 10 16 0.00 0.00
3:55 pm 15:55 Sunny 69 20.8 17 -8.2 13 13 Calm 30.15 1021 10 16 0.00 0.00
4:15 pm 16:15 Sunny 69 20.8 13 -10.4 11 11 Calm 30.12 1020 10 16 0.00 0.00
4:35 pm 16:35 Sunny 69 20.8 20 -6.7 15 15 Calm 30.12 1020 10 16 0.00 0.00
4:55 pm 16:55 Sunny 69 20.8 17 -8.3 13 13 Calm 30.12 1020 10 16 0.00 0.00
5:15 pm 17:15 Sunny 69 20.8 17 -8.3 13 13 Calm 30.12 1020 10 16 0.00 0.00
5:35 pm 17:35 Sunny 69 20.8 14 -10 12 12 Calm 30.12 1020 10 16 0.00 0.00
5:55 pm 17:55 Sunny 69 20.8 19 -7.2 15 15 N 6 9 30.12 1020 10 16 0.00 0.00
6:15 pm 18:15 Sunny 69 20.8 23 -5.1 17 17 NNW 5 7 30.12 1020 10 16 0.00 0.00
6:35 pm 18:35 Sunny 69 20.8 24 -4.6 18 18 N 5 7 30.12 1020 10 16 0.00 0.00
6:55 pm 18:55 Sunny 69 20.8 26 -3.2 20 20 NNE 5 7 30.12 1020 10 16 0.00 0.00
7:15 pm 19:15 Sunny 69 20.5 27 -2.8 21 21 N 6 9 30.12 1020 10 16 0.00 0.00
7:35 pm 19:35 Sunny 67 19.5 27 -2.8 22 22 N 5 7 30.12 1020 10 16 0.00 0.00
7:55 pm 19:55 Sunny 64 18 25 -3.9 22 22 N 5 7 30.12 1020 10 16 0.00 0.00
8:15 pm 20:15 Sunny 64 17.5 26 -3.3 24 24 N 3 6 30.15 1021 10 16 0.00 0.00
8:35 pm 20:35 Clear 64 17.5 26 -3.2 24 24 N 3 6 30.15 1021 10 16 0.00 0.00
8:55 pm 20:55 Clear 61 16 35 1.7 38 38 NNE 3 6 30.18 1022 10 16 0.00 0.00
9:15 pm 21:15 Clear 60 15.8 37 3 43 43 Calm 30.18 1022 10 16 0.00 0.00
9:35 pm 21:35 Clear 60 15.3 40 4.7 49 49 Calm 30.18 1022 10 16 0.00 0.00
9:55 pm 21:55 Clear 57 13.8 41 4.9 55 55 Calm 30.18 1022 10 16 0.00 0.00
10:15 pm 22:15 Clear 55 12.5 44 6.6 68 68 Calm 30.18 1022 10 16 0.00 0.00
10:35 pm 22:35 Clear 55 12.5 45 7 69 69 Calm 30.18 1022 10 16 0.00 0.00
10:55 pm 22:55 Clear 55 12.5 43 6 65 65 Calm 30.21 1023 10 16 0.00 0.00
11:15 pm 23:15 Clear 55 12.5 43 6.1 65 65 Calm 30.21 1023 10 16 0.00 0.00
11:35 pm 23:35 Clear 55 12.5 44 6.9 69 69 Calm 30.21 1023 10 16 0.00 0.00
11:55 pm 23:55 Clear 53 11.5 43 6.3 71 71 Calm 30.21 1023 10 16 0.00 0.00

Powered by AerisWeather